ANA96 RJBB-RJTT

Flight info

Callsign ANA96
Flight time 0h 53m
Altitude 33000
Route SOVRI UPRAL YAGYU SHTLE Y71 XAC
Aircraft A320/M-SDE3FGHIRWY/LB1

Departure

Time 2026-05-04 18:47
Airport Kansai International Airport (RJBB)

Arrival

Time 2026-05-04 19:40
Airport Tokyo Haneda International Airport (RJTT)
Time Latitude Longitude Altitude Speed Heading
2026-05-04 18:08 34.43012 135.23970 19 ft 0 kts 321°
2026-05-04 18:27 34.43005 135.23977 19 ft 3 kts 321°
2026-05-04 18:28 34.42989 135.23992 19 ft 3 kts 321°
2026-05-04 18:28 34.42973 135.24008 20 ft 3 kts 321°
2026-05-04 18:28 34.42958 135.24024 21 ft 3 kts 308°
2026-05-04 18:28 34.42948 135.24045 19 ft 3 kts 278°
2026-05-04 18:29 34.42950 135.24066 22 ft 2 kts 231°
2026-05-04 18:29 34.42950 135.24067 22 ft 0 kts 231°
2026-05-04 18:35 34.42924 135.24027 20 ft 11 kts 231°
2026-05-04 18:36 34.42861 135.23932 19 ft 15 kts 231°
2026-05-04 18:36 34.42798 135.23840 19 ft 14 kts 231°
2026-05-04 18:36 34.42796 135.23746 19 ft 12 kts 319°
2026-05-04 18:36 34.42869 135.23674 20 ft 15 kts 321°
2026-05-04 18:37 34.42955 135.23590 21 ft 17 kts 320°
2026-05-04 18:37 34.43008 135.23538 21 ft 13 kts 319°
2026-05-04 18:37 34.43007 135.23441 20 ft 12 kts 226°
2026-05-04 18:37 34.42947 135.23354 20 ft 9 kts 231°
2026-05-04 18:38 34.42922 135.23313 19 ft 9 kts 240°
2026-05-04 18:38 34.42929 135.23252 19 ft 7 kts 306°
2026-05-04 18:38 34.42962 135.23216 22 ft 6 kts 321°
2026-05-04 18:38 34.43010 135.23169 24 ft 13 kts 321°
2026-05-04 18:39 34.43092 135.23090 24 ft 16 kts 321°
2026-05-04 18:39 34.43172 135.23011 28 ft 14 kts 321°
2026-05-04 18:39 34.43252 135.22933 29 ft 16 kts 321°
2026-05-04 18:39 34.43350 135.22837 29 ft 21 kts 321°
2026-05-04 18:40 34.43472 135.22719 29 ft 23 kts 321°
2026-05-04 18:40 34.43591 135.22602 29 ft 22 kts 322°
2026-05-04 18:40 34.43700 135.22495 29 ft 8 kts 320°
2026-05-04 18:40 34.43748 135.22447 29 ft 10 kts 322°
2026-05-04 18:41 34.43794 135.22374 29 ft 13 kts 273°
2026-05-04 18:41 34.43734 135.22271 29 ft 15 kts 231°
2026-05-04 18:41 34.43670 135.22176 29 ft 15 kts 231°
2026-05-04 18:41 34.43594 135.22062 29 ft 20 kts 230°
2026-05-04 18:42 34.43501 135.21923 29 ft 22 kts 230°
2026-05-04 18:42 34.43392 135.21760 29 ft 18 kts 231°
2026-05-04 18:42 34.43298 135.21620 29 ft 25 kts 231°
2026-05-04 18:42 34.43175 135.21438 29 ft 32 kts 231°
2026-05-04 18:43 34.43051 135.21256 29 ft 19 kts 230°
2026-05-04 18:43 34.43034 135.21162 29 ft 5 kts 317°
2026-05-04 18:43 34.43059 135.21127 29 ft 6 kts 313°
2026-05-04 18:43 34.43096 135.21088 29 ft 8 kts 320°
2026-05-04 18:44 34.43150 135.21072 29 ft 9 kts 16°
2026-05-04 18:44 34.43184 135.21107 30 ft 10 kts 47°
2026-05-04 18:44 34.43196 135.21124 30 ft 0 kts 50°
2026-05-04 18:45 34.43209 135.21143 30 ft 3 kts 50°
2026-05-04 18:45 34.43209 135.21144 30 ft 3 kts 50°
2026-05-04 18:45 34.43212 135.21148 30 ft 0 kts 50°
2026-05-04 18:46 34.43227 135.21170 31 ft 17 kts 51°
2026-05-04 18:46 34.43482 135.21550 33 ft 96 kts 51°
2026-05-04 18:46 34.44044 135.22378 31 ft 155 kts 51°
2026-05-04 18:46 34.44724 135.23441 624 ft 157 kts 49°
2026-05-04 18:47 34.45413 135.24453 1364 ft 157 kts 42°
2026-05-04 18:47 34.46394 135.25017 1999 ft 163 kts
2026-05-04 18:47 34.47558 135.24704 2355 ft 186 kts 328°
2026-05-04 18:47 34.48365 135.23407 2725 ft 213 kts 285°
2026-05-04 18:48 34.48162 135.21609 3539 ft 225 kts 242°
2026-05-04 18:48 34.46996 135.20360 4367 ft 235 kts 201°
2026-05-04 18:48 34.45368 135.20043 5212 ft 240 kts 178°
2026-05-04 18:48 34.43785 135.20659 5966 ft 244 kts 139°
2026-05-04 18:49 34.42824 135.22315 6596 ft 248 kts 101°
2026-05-04 18:49 34.42765 135.24426 6980 ft 262 kts 78°
2026-05-04 18:49 34.43058 135.26701 7527 ft 279 kts 74°
2026-05-04 18:49 34.43425 135.29022 8301 ft 287 kts 74°
2026-05-04 18:50 34.43802 135.31430 9154 ft 294 kts 74°
2026-05-04 18:50 34.44193 135.33897 9983 ft 301 kts 73°
2026-05-04 18:50 34.44640 135.36453 10447 ft 320 kts 72°
2026-05-04 18:50 34.45127 135.39163 10778 ft 342 kts 73°
2026-05-04 18:51 34.45637 135.42047 11424 ft 352 kts 73°
2026-05-04 18:51 34.46140 135.44978 12166 ft 359 kts 74°
2026-05-04 18:51 34.46640 135.47973 12918 ft 365 kts 75°
2026-05-04 18:51 34.47135 135.50981 13663 ft 370 kts 75°
2026-05-04 18:52 34.47638 135.54081 14350 ft 376 kts 75°
2026-05-04 18:52 34.48148 135.57229 14998 ft 382 kts 76°
2026-05-04 18:52 34.48659 135.60368 15627 ft 387 kts 76°
2026-05-04 18:52 34.49187 135.63607 16264 ft 393 kts 76°
2026-05-04 18:53 34.49717 135.66851 16898 ft 398 kts 76°
2026-05-04 18:53 34.50260 135.70167 17531 ft 403 kts 77°
2026-05-04 18:53 34.50807 135.73543 18146 ft 409 kts 77°
2026-05-04 18:53 34.51358 135.76964 18713 ft 415 kts 77°
2026-05-04 18:54 34.51916 135.80426 19223 ft 420 kts 77°
2026-05-04 18:54 34.52474 135.83886 19722 ft 426 kts 78°
2026-05-04 18:54 34.53049 135.87454 20242 ft 432 kts 78°
2026-05-04 18:54 34.53632 135.91074 20743 ft 438 kts 78°
2026-05-04 18:55 34.54224 135.94718 21240 ft 444 kts 77°
2026-05-04 18:55 34.56143 136.01885 22204 ft 454 kts 69°
2026-05-04 18:55 34.57223 136.05541 22711 ft 460 kts 69°
2026-05-04 18:56 34.58313 136.09231 23212 ft 466 kts 69°
2026-05-04 18:56 34.59415 136.12968 23697 ft 472 kts 69°
2026-05-04 18:56 34.60515 136.16712 24081 ft 477 kts 69°
2026-05-04 18:56 34.61635 136.20541 24467 ft 483 kts 70°
2026-05-04 18:57 34.62752 136.24367 24841 ft 488 kts 70°
2026-05-04 18:57 34.63892 136.28283 25204 ft 493 kts 70°
2026-05-04 18:57 34.65042 136.32233 25566 ft 497 kts 70°
2026-05-04 18:57 34.66205 136.36234 25913 ft 502 kts 70°
2026-05-04 18:58 34.67363 136.40225 26254 ft 507 kts 71°
2026-05-04 18:58 34.68544 136.44287 26593 ft 512 kts 71°
2026-05-04 18:58 34.69744 136.48413 26917 ft 517 kts 71°
2026-05-04 18:58 34.70930 136.52506 27239 ft 521 kts 71°
2026-05-04 18:59 34.72134 136.56682 27564 ft 526 kts 71°
2026-05-04 18:59 34.73348 136.60909 27890 ft 530 kts 72°
2026-05-04 18:59 34.74571 136.65168 28192 ft 535 kts 72°
2026-05-04 18:59 34.75807 136.69460 28500 ft 539 kts 72°
2026-05-04 19:00 34.77038 136.73728 28815 ft 543 kts 72°
2026-05-04 19:00 34.78305 136.78117 29124 ft 547 kts 72°
2026-05-04 19:00 34.79565 136.82496 29431 ft 551 kts 72°
2026-05-04 19:00 34.80813 136.86874 29727 ft 554 kts 74°
2026-05-04 19:01 34.81790 136.91402 30021 ft 553 kts 83°
2026-05-04 19:01 34.82292 136.96048 30281 ft 551 kts 92°
2026-05-04 19:01 34.82326 137.00684 30538 ft 545 kts 101°
2026-05-04 19:01 34.81931 137.05271 30801 ft 541 kts 106°
2026-05-04 19:02 34.81431 137.09779 31057 ft 543 kts 106°
2026-05-04 19:02 34.80920 137.14332 31312 ft 545 kts 106°
2026-05-04 19:02 34.80402 137.18935 31549 ft 547 kts 106°
2026-05-04 19:02 34.79889 137.23480 31813 ft 548 kts 106°
2026-05-04 19:03 34.79370 137.28096 32168 ft 546 kts 106°
2026-05-04 19:03 34.78852 137.32688 32516 ft 546 kts 106°
2026-05-04 19:03 34.78341 137.37214 32841 ft 545 kts 106°
2026-05-04 19:03 34.77814 137.41824 33021 ft 546 kts 107°
2026-05-04 19:04 34.77298 137.46355 33051 ft 534 kts 107°
2026-05-04 19:04 34.76799 137.50759 33045 ft 528 kts 107°
2026-05-04 19:04 34.75789 137.59549 33036 ft 525 kts 107°
2026-05-04 19:05 34.74757 137.68352 33030 ft 525 kts 107°
2026-05-04 19:05 34.73831 137.77201 33024 ft 528 kts 105°
2026-05-04 19:06 34.73053 137.86053 33008 ft 529 kts 105°
2026-05-04 19:06 34.72250 137.94967 32707 ft 529 kts 106°
2026-05-04 19:07 34.71828 137.99356 32446 ft 527 kts 106°
2026-05-04 19:07 34.71482 138.03808 32180 ft 532 kts 100°
2026-05-04 19:07 34.71459 138.08311 31925 ft 533 kts 98°
2026-05-04 19:07 34.71473 138.12823 31672 ft 531 kts 97°
2026-05-04 19:08 34.71494 138.17322 31417 ft 529 kts 97°
2026-05-04 19:08 34.71518 138.21731 31147 ft 524 kts 97°
2026-05-04 19:08 34.71540 138.26182 30593 ft 522 kts 98°
2026-05-04 19:08 34.71554 138.30546 30063 ft 519 kts 98°
2026-05-04 19:09 34.71561 138.34934 29477 ft 515 kts 98°
2026-05-04 19:09 34.71565 138.39248 29010 ft 510 kts 97°
2026-05-04 19:09 34.71568 138.43555 28481 ft 506 kts 97°
2026-05-04 19:09 34.71573 138.47802 27977 ft 501 kts 97°
2026-05-04 19:10 34.71578 138.52047 27469 ft 498 kts 97°
2026-05-04 19:10 34.71580 138.56237 26988 ft 493 kts 97°
2026-05-04 19:10 34.71581 138.60352 26513 ft 490 kts 96°
2026-05-04 19:10 34.71583 138.64498 26039 ft 487 kts 96°
2026-05-04 19:11 34.71582 138.68607 25565 ft 484 kts 96°
2026-05-04 19:11 34.71577 138.72653 25092 ft 481 kts 96°
2026-05-04 19:11 34.71569 138.76715 24621 ft 480 kts 96°
2026-05-04 19:11 34.71561 138.80775 24133 ft 478 kts 95°
2026-05-04 19:12 34.71550 138.84822 23649 ft 476 kts 95°
2026-05-04 19:12 34.71517 138.92787 22608 ft 470 kts 95°
2026-05-04 19:12 34.71502 138.96773 22109 ft 467 kts 95°
2026-05-04 19:13 34.71487 139.00712 21612 ft 464 kts 94°
2026-05-04 19:13 34.71473 139.04577 21119 ft 461 kts 94°
2026-05-04 19:13 34.71455 139.08480 20622 ft 458 kts 94°
2026-05-04 19:13 34.71434 139.12351 20127 ft 455 kts 94°
2026-05-04 19:14 34.71409 139.16184 19721 ft 450 kts 94°
2026-05-04 19:14 34.71385 139.19944 19043 ft 440 kts 93°
2026-05-04 19:14 34.71361 139.23586 18596 ft 424 kts 93°
2026-05-04 19:14 34.71340 139.27105 18218 ft 407 kts 93°
2026-05-04 19:15 34.71316 139.30487 17751 ft 393 kts 93°
2026-05-04 19:15 34.71291 139.33724 17340 ft 380 kts 93°
2026-05-04 19:15 34.71268 139.36902 16932 ft 374 kts 91°
2026-05-04 19:15 34.71496 139.40034 16527 ft 373 kts 79°
2026-05-04 19:16 34.72176 139.43060 16121 ft 369 kts 67°
2026-05-04 19:16 34.73270 139.45869 15730 ft 364 kts 57°
2026-05-04 19:16 34.74524 139.48573 15330 ft 366 kts 57°
2026-05-04 19:16 34.75755 139.51248 14924 ft 367 kts 57°
2026-05-04 19:17 34.77002 139.53969 14519 ft 368 kts 57°
2026-05-04 19:17 34.78249 139.56701 14101 ft 368 kts 57°
2026-05-04 19:17 34.79492 139.59434 13624 ft 370 kts 57°
2026-05-04 19:17 34.80720 139.62134 13359 ft 364 kts 57°
2026-05-04 19:18 34.81925 139.64791 13234 ft 354 kts 57°
2026-05-04 19:18 34.83101 139.67387 13083 ft 344 kts 57°
2026-05-04 19:18 34.84250 139.69913 12970 ft 334 kts 57°
2026-05-04 19:18 34.85352 139.72332 12984 ft 327 kts 57°
2026-05-04 19:19 34.86464 139.74784 12991 ft 326 kts 59°
2026-05-04 19:19 34.87243 139.77370 12993 ft 330 kts 77°
2026-05-04 19:19 34.87449 139.80161 12992 ft 330 kts 95°
2026-05-04 19:19 34.87073 139.82870 12996 ft 326 kts 110°
2026-05-04 19:20 34.86401 139.85523 12999 ft 327 kts 111°
2026-05-04 19:20 34.85734 139.88168 12823 ft 325 kts 111°
2026-05-04 19:20 34.85087 139.90757 12533 ft 323 kts 110°
2026-05-04 19:20 34.84455 139.93371 12279 ft 321 kts 106°
2026-05-04 19:21 34.84102 139.96069 12022 ft 321 kts 95°
2026-05-04 19:21 34.84126 139.98787 11768 ft 319 kts 84°
2026-05-04 19:21 34.84423 140.01459 11529 ft 317 kts 81°
2026-05-04 19:21 34.84720 140.04070 11280 ft 314 kts 82°
2026-05-04 19:22 34.85014 140.06703 11042 ft 311 kts 82°
2026-05-04 19:22 34.85409 140.09280 10800 ft 308 kts 72°
2026-05-04 19:22 34.86156 140.11676 10562 ft 303 kts 60°
2026-05-04 19:22 34.87166 140.13907 10325 ft 299 kts 57°
2026-05-04 19:23 34.88183 140.16106 10087 ft 296 kts 57°
2026-05-04 19:23 34.89187 140.18285 9902 ft 293 kts 58°
2026-05-04 19:23 34.90176 140.20433 9751 ft 292 kts 56°
2026-05-04 19:23 34.91372 140.22405 9635 ft 287 kts 43°
2026-05-04 19:24 34.92860 140.23986 9459 ft 280 kts 31°
2026-05-04 19:24 34.94435 140.25373 9114 ft 278 kts 32°
2026-05-04 19:24 34.95984 140.26745 8741 ft 277 kts 33°
2026-05-04 19:24 34.97542 140.28126 8390 ft 275 kts 33°
2026-05-04 19:25 34.98556 140.29027 8281 ft 268 kts 33°
2026-05-04 19:25 35.00061 140.30361 7950 ft 264 kts 33°
2026-05-04 19:25 35.02223 140.31525 7227 ft 254 kts
2026-05-04 19:25 35.03930 140.31291 6867 ft 244 kts 336°
2026-05-04 19:26 35.04929 140.30647 6820 ft 249 kts 321°
2026-05-04 19:26 35.06158 140.29170 6673 ft 247 kts 310°
2026-05-04 19:26 35.07314 140.27612 6520 ft 247 kts 310°
2026-05-04 19:26 35.08469 140.26045 6410 ft 244 kts 310°
2026-05-04 19:27 35.09573 140.24547 6254 ft 235 kts 310°
2026-05-04 19:27 35.10649 140.23088 6111 ft 225 kts 310°
2026-05-04 19:27 35.11675 140.21694 5990 ft 216 kts 310°
2026-05-04 19:27 35.12659 140.20356 5859 ft 207 kts 310°
2026-05-04 19:28 35.13593 140.19083 5745 ft 199 kts 310°
2026-05-04 19:28 35.14491 140.17860 5658 ft 187 kts 310°
2026-05-04 19:28 35.15340 140.16706 5529 ft 176 kts 310°
2026-05-04 19:28 35.16127 140.15637 5426 ft 166 kts 310°
2026-05-04 19:29 35.16866 140.14631 5333 ft 155 kts 310°
2026-05-04 19:29 35.17568 140.13677 5239 ft 144 kts 310°
2026-05-04 19:29 35.18228 140.12776 5158 ft 140 kts 310°
2026-05-04 19:29 35.18960 140.11771 5107 ft 176 kts 310°
2026-05-04 19:30 35.19803 140.10618 4969 ft 185 kts 310°
2026-05-04 19:30 35.20652 140.09457 4859 ft 185 kts 311°
2026-05-04 19:30 35.21510 140.08286 4748 ft 183 kts 310°
2026-05-04 19:30 35.22357 140.07132 4641 ft 181 kts 311°
2026-05-04 19:31 35.23188 140.06001 4538 ft 180 kts 311°
2026-05-04 19:31 35.24020 140.04865 4462 ft 179 kts 311°
2026-05-04 19:31 35.24848 140.03731 4389 ft 179 kts 312°
2026-05-04 19:31 35.25396 140.02982 4330 ft 178 kts 312°
2026-05-04 19:32 35.26011 140.02134 4266 ft 176 kts 312°
2026-05-04 19:32 35.26819 140.01028 4191 ft 176 kts 312°
2026-05-04 19:32 35.27632 139.99918 4114 ft 174 kts 313°
2026-05-04 19:33 35.28465 139.98864 4036 ft 174 kts 319°
2026-05-04 19:33 35.29433 139.97971 4003 ft 173 kts 326°
2026-05-04 19:33 35.30440 139.97188 4004 ft 175 kts 328°
2026-05-04 19:33 35.31509 139.96408 4003 ft 180 kts 329°
2026-05-04 19:34 35.32594 139.95634 4007 ft 181 kts 329°
2026-05-04 19:34 35.33689 139.94860 4009 ft 181 kts 329°
2026-05-04 19:34 35.34777 139.94092 4003 ft 182 kts 329°
2026-05-04 19:34 35.35878 139.93315 4008 ft 182 kts 328°
2026-05-04 19:35 35.36976 139.92540 3896 ft 182 kts 329°
2026-05-04 19:35 35.38068 139.91769 3701 ft 180 kts 329°
2026-05-04 19:35 35.39149 139.91006 3475 ft 178 kts 329°
2026-05-04 19:35 35.40200 139.90263 3247 ft 176 kts 329°
2026-05-04 19:36 35.41261 139.89514 3004 ft 174 kts 330°
2026-05-04 19:36 35.42292 139.88784 2777 ft 171 kts 330°
2026-05-04 19:36 35.43292 139.88078 2549 ft 161 kts 330°
2026-05-04 19:36 35.44243 139.87405 2349 ft 153 kts 330°
2026-05-04 19:37 35.45129 139.86778 2134 ft 141 kts 331°
2026-05-04 19:37 35.45930 139.86211 1973 ft 127 kts 332°
2026-05-04 19:37 35.46677 139.85682 1802 ft 122 kts 333°
2026-05-04 19:37 35.47411 139.85163 1632 ft 121 kts 333°
2026-05-04 19:38 35.48137 139.84649 1462 ft 121 kts 332°
2026-05-04 19:38 35.48865 139.84133 1295 ft 120 kts 332°
2026-05-04 19:38 35.49586 139.83623 1125 ft 121 kts 332°
2026-05-04 19:38 35.50310 139.83110 964 ft 119 kts 334°
2026-05-04 19:39 35.51030 139.82600 803 ft 119 kts 331°
2026-05-04 19:39 35.51759 139.82083 642 ft 120 kts 332°
2026-05-04 19:39 35.52468 139.81581 476 ft 119 kts 333°
2026-05-04 19:39 35.53190 139.81069 317 ft 120 kts 333°
2026-05-04 19:40 35.53916 139.80552 160 ft 119 kts 332°
2026-05-04 19:40 35.54617 139.80047 35 ft 111 kts 331°
2026-05-04 19:40 35.55197 139.79642 24 ft 74 kts 331°
2026-05-04 19:40 35.55501 139.79428 26 ft 38 kts 330°
2026-05-04 19:41 35.55696 139.79270 26 ft 30 kts 316°
2026-05-04 19:41 35.55780 139.79131 23 ft 9 kts 297°
2026-05-04 19:41 35.55786 139.79117 24 ft 0 kts 297°
2026-05-04 19:42 35.55788 139.79113 23 ft 2 kts 298°
2026-05-04 19:42 35.55796 139.79089 25 ft 5 kts 287°
2026-05-04 19:42 35.55789 139.79044 23 ft 5 kts 244°
2026-05-04 19:42 35.55772 139.79007 23 ft 5 kts 239°
2026-05-04 19:43 35.55756 139.78974 23 ft 4 kts 239°
2026-05-04 19:43 35.55741 139.78943 24 ft 4 kts 238°
2026-05-04 19:43 35.55737 139.78935 23 ft 0 kts 238°
2026-05-04 19:44 35.55722 139.78905 23 ft 11 kts 238°
2026-05-04 19:44 35.55687 139.78829 24 ft 10 kts 240°
2026-05-04 19:44 35.55684 139.78822 24 ft 0 kts 240°
2026-05-04 19:46 35.55681 139.78816 15 ft 2 kts 239°
2026-05-04 19:47 35.55673 139.78801 8 ft 2 kts 239°
2026-05-04 19:47 35.55667 139.78788 2 ft 2 kts 239°
2026-05-04 19:47 35.55661 139.78776 38 ft 3 kts 241°
2026-05-04 19:47 35.55652 139.78726 25 ft 7 kts 278°
2026-05-04 19:48 35.55684 139.78674 24 ft 4 kts 315°
2026-05-04 19:48 35.55679 139.78638 22 ft 4 kts 244°
2026-05-04 19:48 35.55665 139.78608 22 ft 4 kts 238°
2026-05-04 19:48 35.55652 139.78582 22 ft 3 kts 239°
2026-05-04 19:49 35.55646 139.78568 24 ft 0 kts 241°
2026-05-04 19:49 35.55645 139.78567 24 ft 0 kts 240°
2026-05-04 19:49 35.55644 139.78564 24 ft 0 kts 239°